Terminal Aerodrome Forecast
Issued by NWS

Home | Current Version | Previous Version | Text Only | Print | Product List | Glossary On
Versions: 1 2 3 4 5 6 7 8 9 10 11 12 13 14 15 16 17 18 19 20 21 22 23 24 25 26 27 28 29 30 31 32 33 34 35 36 37 38 39 40 41 42 43 44 45 46
000
FTUS45 KTWC 200500
TAFOLS
TAF
KOLS 200520Z 2006/2106 08003KT P6SM SCT070
     FM201000 VRB04KT P6SM VCSH SCT050
     FM201600 22006KT P6SM SCT060
     FM202000 25006KT P6SM VCSH SCT060=

USA.gov is the U.S. government's official web portal to all federal, state and local government web resources and services.